TimePST,TemperatureF,Dew PointF,Humidity,Sea Level PressureIn,VisibilityMPH,Wind Direction,Wind SpeedMPH,Gust SpeedMPH,PrecipitationIn,Events,Conditions,WindDirDegrees,DateUTC
12:53 AM,39.9,36.0,86,30.26,10.0,Calm,Calm,-,N/A,,Mostly Cloudy,0,2013-01-01 08:53:00
1:53 AM,39.0,36.0,89,30.22,10.0,East,3.5,-,N/A,,Overcast,90,2013-01-01 09:53:00
2:53 AM,39.0,36.0,89,30.22,10.0,WNW,3.5,-,N/A,,Overcast,290,2013-01-01 10:53:00
3:53 AM,37.0,34.0,89,30.22,10.0,Calm,Calm,-,N/A,,Clear,0,2013-01-01 11:53:00
4:53 AM,34.0,32.0,92,30.21,10.0,Calm,Calm,-,N/A,,Clear,0,2013-01-01 12:53:00
5:53 AM,33.1,32.0,96,30.22,8.0,Calm,Calm,-,N/A,,Clear,0,2013-01-01 13:53:00
6:53 AM,34.0,34.0,100,30.22,10.0,Calm,Calm,-,N/A,,Overcast,0,2013-01-01 14:53:00
7:53 AM,35.1,35.1,100,30.24,10.0,Calm,Calm,-,N/A,,Overcast,0,2013-01-01 15:53:00
8:53 AM,37.0,35.1,93,30.26,10.0,Calm,Calm,-,N/A,,Overcast,0,2013-01-01 16:53:00
9:53 AM,39.9,36.0,86,30.26,10.0,WNW,3.5,-,N/A,,Overcast,290,2013-01-01 17:53:00
10:53 AM,42.1,36.0,79,30.24,10.0,Calm,Calm,-,N/A,,Scattered Clouds,0,2013-01-01 18:53:00
11:53 AM,48.0,37.0,66,30.19,10.0,Calm,Calm,-,N/A,,Clear,0,2013-01-01 19:53:00
12:53 PM,53.1,39.0,59,30.15,10.0,North,6.9,-,N/A,,Mostly Cloudy,10,2013-01-01 20:53:00
1:53 PM,52.0,37.0,57,30.15,10.0,North,8.1,-,N/A,,Partly Cloudy,360,2013-01-01 21:53:00
2:53 PM,54.0,36.0,51,30.15,10.0,NE,11.5,-,N/A,,Clear,50,2013-01-01 22:53:00
3:53 PM,53.1,35.1,50,30.16,10.0,East,8.1,-,N/A,,Partly Cloudy,90,2013-01-01 23:53:00
4:53 PM,48.9,36.0,61,30.16,10.0,East,9.2,-,N/A,,Partly Cloudy,80,2013-01-02 00:53:00
5:53 PM,45.0,36.0,71,30.17,10.0,ESE,6.9,-,N/A,,Clear,110,2013-01-02 01:53:00
6:53 PM,43.0,35.1,74,30.19,10.0,East,5.8,-,N/A,,Clear,90,2013-01-02 02:53:00
7:53 PM,42.1,34.0,73,30.23,10.0,ESE,8.1,-,N/A,,Clear,110,2013-01-02 03:53:00
8:53 PM,39.9,33.1,77,30.24,10.0,SE,5.8,-,N/A,,Clear,140,2013-01-02 04:53:00
9:53 PM,39.9,33.1,77,30.25,10.0,Calm,Calm,-,N/A,,Clear,0,2013-01-02 05:53:00
10:53 PM,35.1,30.9,85,30.25,10.0,NE,5.8,-,N/A,,Clear,40,2013-01-02 06:53:00
11:53 PM,33.1,30.9,92,30.24,10.0,Calm,Calm,-,N/A,,Clear,0,2013-01-02 07:53:00